Commit Graph

  • d7d8244 (dev) polls: small fix on template by Darks 2021-03-16 18:51:11 +0100
  • 40aeb16 Merge pull request 'Login as' (#90) from login_as into dev by Lephenixnoir 2021-03-10 16:15:02 +0100
  • 8bdf390 (refs/pull/90/head) login_as: fixed some issues See #90 by Darks 2021-03-06 11:36:35 +0100
  • 87ef91b login_as: add function to login as arbitrary account by Darks 2021-03-05 23:44:02 +0100
  • d783feb PEP8: removed trailing spaces by Darks 2021-03-05 21:52:07 +0100
  • 284e898 (preprod) forum: random improvements to overflows on the forum by Lephe 2021-03-05 13:52:55 +0100
  • 07a91c4 admin: show group CSS on user editor by Lephe 2021-02-27 11:50:40 +0100
  • 1d63d05 admin: show trophy icons on user editor by Lephe 2021-02-27 11:42:29 +0100
  • f5f1a44 master: update special privilege names for GLaDOS by Lephe 2021-02-27 10:14:59 +0100
  • 6f98cba review of privileges and forum permissions by Lephe 2021-02-26 18:29:25 +0100
  • d50b58c (random improvements on texts) by Lephe 2021-02-20 19:30:18 +0100
  • 3ee3794 master: fix groups not fully updating by Lephe 2021-02-26 17:29:23 +0100
  • 0edc996 markdown: add linkify extension by Darks 2021-02-24 00:38:26 +0100
  • 41d1411 markdown: add hard breaks with \\ Plus some PEP8 enhancements by Darks 2021-02-24 00:06:49 +0100
  • f722d70 markdown: add some tags to bleach allowlist by Darks 2021-02-23 23:25:20 +0100
  • 53afccf markdown: fixed allowlists by Darks 2021-02-23 13:49:14 +0100
  • 6136c6e markdown: add better sanitization And disable nl2br extension by Darks 2021-02-23 13:30:09 +0100
  • eba1b7d markdown: better input sanitization by Darks 2021-02-23 12:00:34 +0100
  • 41eaaa4 (HEAD -> master) Merge branch 'preprod' on master by Eldeberen 2021-02-23 00:15:29 +0100
  • 7e7e865 Merge branch 'dev' of gitea.planet-casio.com:devs/PCv5 into dev by Eldeberen 2021-02-22 23:54:51 +0100
  • fecbdff polls: add link in admin panel by Eldeberen 2021-02-22 23:54:47 +0100
  • 938516c (refs/pull/88/head) polls: added admin panel and deletion form by Eldeberen 2021-02-22 23:50:19 +0100
  • d6512bb polls: added multi-choices polls by Eldeberen 2021-02-22 22:49:11 +0100
  • b23fc15 polls: changes in template, display results when user has voted by Eldeberen 2021-02-21 21:15:54 +0100
  • 5958605 forum: fix message for necropost warning by Eldeberen 2021-02-21 20:29:55 +0100
  • f10d540 forum: fix #84 by Eldeberen 2021-02-21 20:17:48 +0100
  • f3bb885 Vérification de l'existence d'une signature pour l'afficher by Eragon 2021-02-21 12:15:29 +0100
  • 0c7474d pclink: add handle for topics rewrite some handles in french by Eldeberen 2021-02-21 12:02:12 +0100
  • cd8ce4f admin: fix name edition through admin panel (#85) by Eldeberen 2021-02-20 19:32:18 +0100
  • 894a0b6 pclink: fix link for users by Eldeberen 2021-02-20 19:09:30 +0100
  • 1d457d7 topic: fix model preventing Post from polymorphic loading as Topic by Lephe 2021-02-20 19:02:21 +0100
  • d0714d8 poll: phoque it. XML is much more restrictive than html by Eldeberen 2021-02-20 18:43:37 +0100
  • e2c84df poll: fixed a ***** bug by Eldeberen 2021-02-20 18:31:40 +0100
  • 5efcadb Merge branch 'polls' into dev by Eldeberen 2021-02-20 17:52:59 +0100
  • b5630e0 (refs/pull/86/head) md: add pclink for users by Eldeberen 2021-02-20 17:36:36 +0100
  • c8661ca master: update groups without deleting them by Lephe 2021-02-20 17:34:35 +0100
  • 9d08f81 poll,md: adds pclink for polls by Eldeberen 2021-02-20 17:17:33 +0100
  • b08085d Merge branch 'dev' into polls by Darks 2021-02-20 15:48:30 +0100
  • 85dfde3 md: improved markdown by Eldeberen 2021-02-20 15:39:52 +0100
  • cd8efcc Merge branch 'dev' of gitea.planet-casio.com:devs/PCv5 into polls by Eldeberen 2021-02-20 01:36:04 +0100
  • fabad32 polls: add a panel to manage own polls by Eldeberen 2021-02-20 01:28:08 +0100
  • 0801b8e poll: add poll creation form by Eldeberen 2021-02-20 00:39:22 +0100
  • 473448a poll: add ability to vote Fixed some bugs too by Eldeberen 2021-02-20 00:33:34 +0100
  • ec3f33e polls: updated templates by Eldeberen 2021-02-19 23:26:10 +0100
  • 3b1aa2f admin-panel: fix users registration date by Eldeberen 2021-02-19 22:23:26 +0100
  • 169aca8 polls: added migration by Eldeberen 2021-02-19 22:07:43 +0100
  • d2c5ddd polls: added models by Eldeberen 2021-02-19 22:07:31 +0100
  • c0bb2f5 misc: small fixes by Eldeberen 2021-02-18 00:04:28 +0100
  • 9273430 #84 Configuration de la durée avant nécropost by Eragon 2021-01-12 17:34:50 +0100
  • 4ddf603 #84 Passage du dernier post en cas de nécropost by Eragon 2021-01-12 17:30:54 +0100
  • c0ae3cc #84 Confirmation anti-nécropost by Eragon 2021-01-12 16:40:52 +0100
  • 243ae43 dev: added support for local development test files by Darks 2020-11-13 01:45:55 +0100
  • 4aa1802 polls: created backbone of models (#72) by Darks 2020-11-12 00:11:33 +0100
  • 63baae9 Merge branch 'glados' of gitea.planet-casio.com:devs/PCv5 into dev by Darks 2020-11-11 13:47:24 +0100
  • 98de289 (glados) glados: added glados socket and example wrapper by Darks 2020-11-11 13:26:45 +0100
  • 1d38f90 admin/members: add a dynamic regex/logic filter for the member list by Lephe 2020-11-02 14:31:28 +0100
  • 13b2bd2 admin/members: add a full member list by Lephe 2020-11-01 16:12:15 +0100
  • 0be0d5a admin/groups: show only users with groups or special privileges by Lephe 2020-11-01 15:59:38 +0100
  • 8155cf1 threads: fix misplaced </td> in template by Lephe 2020-11-01 15:59:07 +0100
  • 75f3a90 master.py: update forums with stateful logic by Lephe 2020-11-01 10:50:52 +0100
  • cf9cb8a forum: add true, recursive deletion methods by Lephe 2020-11-01 10:49:24 +0100
  • bb6450b editor: don't autofocus by default by Lephe 2020-10-31 22:15:03 +0100
  • 36ccb16 thread: use the thread widget for top comments by Lephe 2020-10-31 15:33:29 +0100
  • c7846c4 threads: improve layout and flow of messages by Lephe 2020-10-31 15:15:44 +0100
  • 05c16b8 threads: hide signature delimiter if there is no signature by Lephe 2020-10-31 10:11:07 +0100
  • ee01a4c master.py: split generation of trophies and generation of icons May be used in development environment when database is populated and deleting/recreating trophies throws an error because it will broke non-null relationships. by Darks 2020-10-31 10:15:07 +0100
  • 93e5fc3 admin: improve display of trophies by Lephe 2020-10-31 09:51:00 +0100
  • a95a88f app: send cookies with Secure and SameSite=Lax (#60) by Lephe 2020-10-30 14:05:34 +0100
  • e063637 forum: match topic title length in creation form with model by Lephe 2020-10-30 09:36:21 +0100
  • ed231f6 fix CSRF token for message preview (#77) by Darks 2020-10-07 21:47:21 +0200
  • 227087e Issue #76 Refactoriser les messages flash by Eragon 2020-10-01 22:16:15 +0200
  • 510b57c posts: fix attachements deletion by Darks 2020-09-26 15:17:55 +0200
  • 3b188e3 posts: add deletion by Darks 2020-09-26 14:55:55 +0200
  • 0d8dd70 security: add CSRF protection globally The decorator @check_csrf can be used to check CSRF protection when using GET links (like delete a post or logout) by Darks 2020-09-26 14:48:30 +0200
  • 8edeb05 templates: added <hr> separation between comment and signature by Darks 2020-09-26 12:31:17 +0200
  • e308fca templates: added a widget for threads It will be used for program comments, etc. by Darks 2020-09-26 11:56:07 +0200
  • 5253f8e post edition: added redirection to topic (#49) Beware that the urlparse method may return unsafe results… IDK by Darks 2020-09-24 23:25:25 +0200
  • 67c3ebb editor: fix #73 by Darks 2020-09-24 22:43:39 +0200
  • e265e00 admin: fixed the forum panel by Darks 2020-09-24 00:22:20 +0200
  • ed5367d editor: added previews by Darks 2020-09-23 23:58:25 +0200
  • 555d8ae Refact some forms (#70) by Darks 2020-09-23 20:53:06 +0200
  • e9948f9 forum: fix index by Darks 2020-09-18 20:05:12 +0200
  • 6d42ff7 Merge branch 'dev' into preprod by Darks 2020-09-18 19:44:31 +0200
  • 9409113 markdown: add markdown rendering by Darks 2020-09-18 19:43:10 +0200
  • fd50158 css: fix a bit the style of text editor by Darks 2020-09-18 19:07:06 +0200
  • cb3efc2 Merge pull request 'Utilisation de https://github.com/sparksuite/simplemde-markdown-editor comme éditeur' (#71) from new_editor into dev by Darks 2020-09-18 17:40:08 +0200
  • ed0f3b4 (refs/pull/71/head) Meilleur gestion avec plusieurs forms dans une page by Eragon 2020-09-18 14:59:38 +0200
  • b5f1ea1 Un seul chargement du script même avec plusieurs textarea by Eragon 2020-09-18 11:53:50 +0200
  • c419716 Utilisation de https://github.com/sparksuite/simplemde-markdown-editor comme éditeur by Eragon 2020-09-17 22:36:52 +0200
  • cbdffc1 Ajout de la possibilité d'activer un compte par la cli. by Eragon 2020-09-17 15:18:38 +0200
  • f15b33a Ajout de l'exemple d'activation/désactivation de l'envoi des mails by Eragon 2020-09-17 15:08:36 +0200
  • 80bbcac themes: added Flammingkite theme Still need to implement custom theme selection by Louis Gatin 2020-09-01 14:32:30 +0200
  • 8192c48 Merge branch 'dev' into preprod by Darks 2020-08-27 23:12:54 +0200
  • da78d0d admin: add a page to get configuration used by Darks 2020-08-27 23:12:31 +0200
  • b6a8302 Merge branch 'dev' into preprod by Darks 2020-08-25 23:46:53 +0200
  • df745fd ldap: add sub-organization feature by Darks 2020-08-25 23:05:54 +0200
  • c5e9980 fix a typo in many files by Darks 2020-08-25 22:57:45 +0200
  • 7395835 refact: models files are nom uniform (all singular) by Darks 2020-08-06 21:19:01 +0200
  • a7bde62 feat(trophies): added programs count by Darks 2020-08-06 21:05:49 +0200
  • 107c891 fix(validators): cleaned a bit the directory by Darks 2020-08-06 00:04:47 +0200